DW8785 Weather Reports


time (UTC)temp
C
wind
direction
speed
KPH
gust
KPH
rain 1hr
cm
rain 24hr
cm
rain mn
cm
humidity
%
barometer
mb
20260902070006 21 296 1.6 0.0 0.00 0.00 0.00 73 1014.2
20260902064619 21 295 1.6 0.0 0.00 0.00 0.00 72 1014.2
20260902063058 21 298 1.6 0.0 0.00 0.00 0.00 71 1014.2
20260902061553 21 302 0.0 0.0 0.00 0.00 0.00 71 1014.0
20260902060051 20 295 1.6 0.0 0.00 0.00 0.00 71 1014.1
20260902054543 20 299 0.0 0.0 0.00 0.00 0.00 71 1014.1
20260902053038 20 299 1.6 0.0 0.00 0.00 0.00 72 1014.0
20260902051534 20 304 3.2 0.0 0.00 0.00 0.00 71 1013.6
20260902050029 20 311 0.0 0.0 0.00 0.00 0.00 70 1013.5
20260902044525 20 337 0.0 0.0 0.00 0.00 0.00 69 1013.5
20260902043021 20 342 0.0 0.0 0.00 0.00 0.00 67 1013.6
20260902041517 20 340 0.0 0.0 0.00 0.00 0.00 65 1013.3
20260902040013 20 347 0.0 0.0 0.00 0.00 0.00 65 1013.2
20260902034508 20 356 0.0 0.0 0.00 0.00 0.00 65 1013.2
20260902033004 20 357 0.0 0.0 0.00 0.00 0.00 65 1013.2
20260902031600 20 339 0.0 0.0 0.00 0.00 0.00 66 1013.2
20260902030055 21 340 0.0 0.0 0.00 0.00 0.00 66 1013.1
20260902024558 21 340 1.6 0.0 0.00 0.00 0.00 65 1013.1
20260902023053 21 294 0.0 0.0 0.00 0.00 0.00 62 1013.0
20260902021550 21 294 0.0 0.0 0.00 0.00 0.00 61 1013.2
20260902020038 21 285 0.0 0.0 0.00 0.00 0.00 56 1013.2
20260902014540 20 284 0.0 0.0 0.00 0.00 0.00 56 1013.2
20260902013031 20 284 3.2 0.0 0.00 0.00 0.00 55 1013.3
20260902011528 21 274 6.4 0.0 0.00 0.00 0.00 55 1013.4
20260902010024 20 359 4.8 0.0 0.00 0.00 0.00 54 1013.4
20260902004523 20 284 9.7 0.0 0.00 0.00 0.00 54 1013.3
20260902003015 20 359 11.3 0.0 0.00 0.00 0.00 54 1013.5
20260902001511 20 284 12.9 0.0 0.00 0.00 0.00 54 1013.3
20260902000007 20 352 14.5 0.0 0.00 0.00 0.00 54 1013.5
20260901234503 20 359 14.5 0.0 0.00 0.00 0.00 57 1013.5
20260901233058 20 192 17.7 0.0 0.00 0.00 0.00 54 1013.6
20260901231654 19 359 16.1 0.0 0.00 0.00 0.00 62 1013.6
20260901230052 19 357 16.1 0.0 0.00 0.00 0.00 61 1013.6
20260901224546 19 198 16.1 0.0 0.00 0.00 0.00 61 1013.7
20260901223047 19 189 12.9 0.0 0.00 0.00 0.00 62 1013.6
20260901221538 19 356 12.9 0.0 0.00 0.00 0.00 63 1013.6
20260901220037 19 191 17.7 0.0 0.00 0.00 0.00 62 1013.7
20260901214534 20 193 14.5 0.0 0.00 0.00 0.00 61 1013.6
20260901213032 20 343 16.1 0.0 0.00 0.00 0.00 62 1013.6
20260901211521 19 193 11.3 0.0 0.00 0.00 0.00 64 1013.6
20260901210019 20 188 16.1 0.0 0.00 0.00 0.00 64 1013.4
20260901204516 20 195 16.1 0.0 0.00 0.00 0.00 66 1013.4
20260901203010 20 188 12.9 0.0 0.00 0.00 0.00 68 1013.5
20260901201506 20 359 14.5 0.0 0.00 0.00 0.00 70 1013.4
20260901200001 20 357 12.9 0.0 0.00 0.00 0.00 72 1013.5
20260901194600 21 199 9.7 0.0 0.00 0.00 0.00 74 1013.4
20260901193057 21 359 11.3 0.0 0.00 0.00 0.00 74 1013.3
20260901191549 21 357 11.3 0.0 0.00 0.00 0.00 75 1013.4
20260901190048 21 359 9.7 0.0 0.00 0.00 0.00 75 1013.1
20260901184547 21 192 11.3 0.0 0.00 0.00 0.00 74 1013.0
20260901183038 22 359 16.1 0.0 0.00 0.00 0.00 71 1012.9
20260901181535 22 359 11.3 0.0 0.00 0.00 0.00 68 1013.0
20260901180028 23 0 14.5 0.0 0.00 0.00 0.00 64 1012.9
20260901174525 23 359 11.3 0.0 0.00 0.00 0.00 62 1012.9
20260901173021 23 357 12.9 0.0 0.00 0.00 0.00 57 1012.9
20260901171518 24 284 11.3 0.0 0.00 0.00 0.00 55 1012.8
20260901170015 24 261 12.9 0.0 0.00 0.00 0.00 54 1012.6
20260901164510 25 319 14.5 0.0 0.00 0.00 0.00 52 1012.7
20260901163007 25 357 12.9 0.0 0.00 0.00 0.00 50 1012.8
20260901161502 25 359 16.1 0.0 0.00 0.00 0.00 49 1012.7
20260901160059 26 271 11.3 0.0 0.00 0.00 0.00 45 1012.7
20260901154552 26 357 17.7 0.0 0.00 0.00 0.00 43 1012.8
20260901153055 26 357 14.5 0.0 0.00 0.00 0.00 40 1012.6
20260901151544 26 281 9.7 0.0 0.00 0.00 0.00 39 1012.7
20260901150040 26 287 9.7 0.0 0.00 0.00 0.00 43 1012.9
20260901144535 26 184 12.9 0.0 0.00 0.00 0.00 48 1012.8
20260901143033 27 185 8.0 0.0 0.00 0.00 0.00 48 1012.7
20260901141535 27 302 8.0 0.0 0.00 0.00 0.00 48 1012.9
20260901140021 26 66 3.2 0.0 0.00 0.00 0.00 54 1013.0
20260901134517 25 47 3.2 0.0 0.00 0.00 0.00 56 1013.0
20260901133012 25 47 6.4 0.0 0.00 0.00 0.00 56 1013.1
20260901131507 25 52 3.2 0.0 0.00 0.00 0.00 56 1013.3
20260901130002 25 48 1.6 0.0 0.00 0.00 0.00 57 1013.4
20260901124602 25 49 3.2 0.0 0.00 0.00 0.00 57 1013.3
20260901123055 26 309 1.6 0.0 0.00 0.00 0.00 55 1013.2
20260901121552 26 59 4.8 0.0 0.00 0.00 0.00 53 1013.1
20260901120045 26 45 4.8 0.0 0.00 0.00 0.00 53 1013.0
20260901114553 26 35 6.4 0.0 0.00 0.00 0.00 53 1013.0
20260901113039 27 71 4.8 0.0 0.00 0.00 0.00 51 1013.0
20260901111533 27 176 4.8 0.0 0.00 0.00 0.00 35 1013.0
20260901110029 27 188 9.7 0.0 0.00 0.00 0.00 40 1012.9
20260901104525 27 359 4.8 0.0 0.00 0.00 0.00 44 1012.8
20260901103022 27 182 6.4 0.0 0.00 0.00 0.00 47 1012.9
20260901101515 26 127 1.6 0.0 0.00 0.00 0.00 54 1013.0
20260901100011 25 157 4.8 0.0 0.00 0.00 0.00 55 1013.1
20260901094507 25 145 4.8 0.0 0.00 0.00 0.00 55 1013.2
20260901093002 25 151 1.6 0.0 0.00 0.00 0.00 55 1013.4
20260901091558 25 157 4.8 0.0 0.00 0.00 0.00 58 1013.4
20260901090053 24 121 3.2 0.0 0.00 0.00 0.00 59 1013.3
20260901084549 24 119 4.8 0.0 0.00 0.00 0.00 61 1013.2
20260901083045 23 152 4.8 0.0 0.00 0.00 0.00 61 1013.2
20260901081545 23 116 4.8 0.0 0.00 0.00 0.00 58 1013.1
20260901080036 23 104 3.2 0.0 0.00 0.00 0.00 61 1013.1
20260901074532 22 144 1.6 0.0 0.00 0.00 0.00 64 1013.1
20260901073028 22 175 1.6 0.0 0.00 0.00 0.00 70 1013.1
20260901071525 22 175 4.8 0.0 0.00 0.00 0.00 73 1013.0